sat.trackr.live / text

‹ back to catalog

IRIDIUM 140

NORAD 43252 · 2018-030D

PAYLOAD ACTIVE UNKNOWN

§ Identity

Operator
Country
US
Launch date
2018-03-30
Launch site
AFWTR
Launch vehicle
Mass (kg)
RCS (m²)

Purposes: comms

External: N2YO · Heavens-Above · Gunter

§ Orbital elements

Epoch: 2026-05-25T04:21:31.396896Z

Period
100.40 min
Inclination
86.3939°
Eccentricity
0.0002176
Mean motion
14.34219055 rev/d
Perigee alt
776.1 km
Apogee alt
779.2 km
Semi-major
7,155.8 km
B*
7.1017e-5
RAAN
300.0557°
Arg perigee
90.4144°
Mean anomaly
269.7301°
Rev number
42,689

§ Raw data

IRIDIUM 1401 43252U 18030D   26145.18161339  .00000219  00000+0  71017-4 0  99992 43252  86.3939 300.0557 0002176  90.4144 269.7301 14.34219055426895

JSON: /api/v1/satellites/43252 · /tle

For live sub-satellite position, see the globe view (requires WebGL).

§ Visibility from observer

Set your observer location to see the next 7 days of passes ≥ 10°. The values pass through the URL so the page stays shareable.

No JS? Fill the form by hand. The geolocation button needs JavaScript.